M I D A S
Marine Information and Data Acquisition System
Tripno 1754 of the Zeeleeuw from 2009-08-25 07:03:36 to 2009-08-25 14:50:38
Back to CruiseResearch ActivitiesStationsMapUnderway DataData graphs

EquipmentUnitsComments
TimeDGPSUTC
LatitudeDGPSDM.mWGS84
LongitudeDGPSDM.mWGS84
SpeedMeteo Stationm/sRelative wind speed
DirectionMeteo StationdegRelative wind direction
TemperatureMeteo Stationdeg CelciusAir temperature
PressureMeteo StationPaAtmospheric pressure
HumidityMeteo Station%Relative humidity
Missing or incorrect values are displayed as -999
Metereological data collected by the RV Zeeleeuw from 2009-08-25 07:03:36 to 2009-08-25 14:50:38
Time Latitude Longitude Speed Direction Temperature Pressure Humidity
2009-08-25 07:05 51°14.609 2°54.76 -999 -999 -999 -999 -999
2009-08-25 07:07 51°14.942 2°54.468 -999 -999 -999 -999 -999
2009-08-25 07:09 51°15.279 2°54.17 -999 -999 -999 -999 -999
2009-08-25 07:11 51°15.617 2°53.875 -999 -999 -999 -999 -999
2009-08-25 07:13 51°15.95 2°53.576 -999 -999 -999 -999 -999
2009-08-25 07:15 51°16.289 2°53.273 -999 -999 -999 -999 -999
2009-08-25 07:17 51°16.625 2°52.965 -999 -999 -999 -999 -999
2009-08-25 07:19 51°16.957 2°52.652 -999 -999 -999 -999 -999
2009-08-25 07:21 51°17.293 2°52.347 -999 -999 -999 -999 -999
2009-08-25 07:23 51°17.643 2°52.087 -999 -999 -999 -999 -999
2009-08-25 07:25 51°17.954 2°51.709 -999 -999 -999 -999 -999
2009-08-25 07:27 51°18.274 2°51.337 -999 -999 -999 -999 -999
2009-08-25 07:29 51°18.609 2°51.013 -999 -999 -999 -999 -999
2009-08-25 07:31 51°18.962 2°50.743 -999 -999 -999 -999 -999
2009-08-25 07:33 51°19.326 2°50.518 -999 -999 -999 -999 -999
2009-08-25 07:35 51°19.701 2°50.297 -999 -999 -999 -999 -999
2009-08-25 07:37 51°20.067 2°50.072 -999 -999 -999 -999 -999
2009-08-25 07:39 51°20.436 2°49.879 -999 -999 -999 -999 -999
2009-08-25 07:41 51°20.813 2°49.698 -999 -999 -999 -999 -999
2009-08-25 07:43 51°21.185 2°49.514 -999 -999 -999 -999 -999
2009-08-25 07:45 51°21.553 2°49.304 -999 -999 -999 -999 -999
2009-08-25 07:47 51°21.914 2°49.067 -999 -999 -999 -999 -999
2009-08-25 07:49 51°22.273 2°48.826 -999 -999 -999 -999 -999
2009-08-25 07:51 51°22.64 2°48.595 -999 -999 -999 -999 -999
2009-08-25 07:53 51°23.004 2°48.352 -999 -999 -999 -999 -999
2009-08-25 07:55 51°23.367 2°48.105 -999 -999 -999 -999 -999
2009-08-25 07:57 51°23.725 2°47.849 -999 -999 -999 -999 -999
2009-08-25 07:59 51°24.082 2°47.589 -999 -999 -999 -999 -999
2009-08-25 08:01 51°24.437 2°47.334 -999 -999 -999 -999 -999
2009-08-25 08:03 51°24.784 2°47.085 -999 -999 -999 -999 -999
2009-08-25 08:05 51°25.129 2°46.836 -999 -999 -999 -999 -999
2009-08-25 08:07 51°25.486 2°46.581 -999 -999 -999 -999 -999
2009-08-25 08:09 51°25.847 2°46.328 -999 -999 -999 -999 -999
2009-08-25 08:11 51°26.202 2°46.075 -999 -999 -999 -999 -999
2009-08-25 08:13 51°26.556 2°45.826 -999 -999 -999 -999 -999
2009-08-25 08:15 51°26.909 2°45.583 -999 -999 -999 -999 -999
2009-08-25 08:17 51°27.263 2°45.335 -999 -999 -999 -999 -999
2009-08-25 08:19 51°27.618 2°45.093 -999 -999 -999 -999 -999
2009-08-25 08:21 51°27.969 2°44.85 -999 -999 -999 -999 -999
2009-08-25 08:23 51°28.32 2°44.6 -999 -999 -999 -999 -999
2009-08-25 08:25 51°28.673 2°44.352 -999 -999 -999 -999 -999
2009-08-25 08:27 51°29.024 2°44.111 -999 -999 -999 -999 -999
2009-08-25 08:29 51°29.378 2°43.877 -999 -999 -999 -999 -999
2009-08-25 08:31 51°29.732 2°43.646 -999 -999 -999 -999 -999
2009-08-25 08:33 51°30.103 2°43.569 -999 -999 -999 -999 -999
2009-08-25 08:35 51°30.463 2°43.717 -999 -999 -999 -999 -999
2009-08-25 08:37 51°30.818 2°43.898 -999 -999 -999 -999 -999
2009-08-25 08:39 51°31.174 2°44.07 -999 -999 -999 -999 -999
2009-08-25 08:41 51°31.529 2°44.23 -999 -999 -999 -999 -999
2009-08-25 08:43 51°31.88 2°44.408 -999 -999 -999 -999 -999
2009-08-25 08:45 51°32.228 2°44.593 -999 -999 -999 -999 -999
2009-08-25 08:47 51°32.573 2°44.784 -999 -999 -999 -999 -999
2009-08-25 08:49 51°32.919 2°44.974 -999 -999 -999 -999 -999
2009-08-25 08:51 51°33.264 2°45.165 -999 -999 -999 -999 -999
2009-08-25 08:53 51°33.611 2°45.353 -999 -999 -999 -999 -999
2009-08-25 08:55 51°33.956 2°45.545 -999 -999 -999 -999 -999
2009-08-25 08:57 51°34.3 2°45.739 -999 -999 -999 -999 -999
2009-08-25 08:59 51°34.645 2°45.932 -999 -999 -999 -999 -999
2009-08-25 09:01 51°34.976 2°46.119 -999 -999 -999 -999 -999
2009-08-25 09:03 51°35.322 2°46.31 -999 -999 -999 -999 -999
2009-08-25 09:05 51°35.667 2°46.498 -999 -999 -999 -999 -999
2009-08-25 09:07 51°36.012 2°46.678 -999 -999 -999 -999 -999
2009-08-25 09:09 51°36.358 2°46.847 -999 -999 -999 -999 -999
2009-08-25 09:11 51°36.703 2°47.018 -999 -999 -999 -999 -999
2009-08-25 09:13 51°37.047 2°47.182 -999 -999 -999 -999 -999
2009-08-25 09:15 51°37.386 2°47.367 -999 -999 -999 -999 -999
2009-08-25 09:17 51°37.722 2°47.553 -999 -999 -999 -999 -999
2009-08-25 09:19 51°38.058 2°47.734 -999 -999 -999 -999 -999
2009-08-25 09:21 51°38.392 2°47.923 -999 -999 -999 -999 -999
2009-08-25 09:23 51°38.726 2°48.114 -999 -999 -999 -999 -999
2009-08-25 09:25 51°39.06 2°48.302 -999 -999 -999 -999 -999
2009-08-25 09:27 51°39.393 2°48.496 -999 -999 -999 -999 -999
2009-08-25 09:29 51°39.723 2°48.682 -999 -999 -999 -999 -999
2009-08-25 09:31 51°40.05 2°48.885 -999 -999 -999 -999 -999
2009-08-25 09:33 51°40.377 2°49.086 -999 -999 -999 -999 -999
2009-08-25 09:35 51°40.705 2°49.281 -999 -999 -999 -999 -999
2009-08-25 09:37 51°41.049 2°49.234 -999 -999 -999 -999 -999
2009-08-25 09:39 51°41.32 2°48.817 -999 -999 -999 -999 -999
2009-08-25 09:41 51°41.491 2°48.298 -999 -999 -999 -999 -999
2009-08-25 09:43 51°41.174 2°47.951 -999 -999 -999 -999 -999
2009-08-25 09:45 51°40.79 2°47.687 -999 -999 -999 -999 -999
2009-08-25 09:47 51°40.412 2°47.397 -999 -999 -999 -999 -999
2009-08-25 09:49 51°40.031 2°47.11 -999 -999 -999 -999 -999
2009-08-25 09:51 51°39.646 2°46.832 -999 -999 -999 -999 -999
2009-08-25 09:53 51°39.259 2°46.562 -999 -999 -999 -999 -999
2009-08-25 09:55 51°38.87 2°46.29 -999 -999 -999 -999 -999
2009-08-25 09:57 51°38.481 2°46.018 -999 -999 -999 -999 -999
2009-08-25 09:59 51°38.102 2°45.759 -999 -999 -999 -999 -999
2009-08-25 10:01 51°37.717 2°45.488 -999 -999 -999 -999 -999
2009-08-25 10:03 51°37.32 2°45.23 -999 -999 -999 -999 -999
2009-08-25 10:05 51°36.924 2°44.971 -999 -999 -999 -999 -999
2009-08-25 10:07 51°36.528 2°44.712 -999 -999 -999 -999 -999
2009-08-25 10:09 51°36.134 2°44.442 -999 -999 -999 -999 -999
2009-08-25 10:11 51°35.741 2°44.173 -999 -999 -999 -999 -999
2009-08-25 10:13 51°35.348 2°43.903 -999 -999 -999 -999 -999
2009-08-25 10:15 51°34.953 2°43.638 -999 -999 -999 -999 -999
2009-08-25 10:17 51°34.56 2°43.368 -999 -999 -999 -999 -999
2009-08-25 10:19 51°34.166 2°43.1 -999 -999 -999 -999 -999
2009-08-25 10:21 51°33.771 2°42.827 -999 -999 -999 -999 -999
2009-08-25 10:23 51°33.375 2°42.56 -999 -999 -999 -999 -999
2009-08-25 10:25 51°32.98 2°42.282 -999 -999 -999 -999 -999
2009-08-25 10:27 51°32.581 2°42.025 -999 -999 -999 -999 -999
2009-08-25 10:29 51°32.251 2°41.638 -999 -999 -999 -999 -999
2009-08-25 10:31 51°32.245 2°41.006 -999 -999 -999 -999 -999
2009-08-25 10:33 51°32.255 2°40.357 -999 -999 -999 -999 -999
2009-08-25 10:35 51°32.335 2°39.751 -999 -999 -999 -999 -999
2009-08-25 10:37 51°32.633 2°39.72 -999 -999 -999 -999 -999
2009-08-25 10:39 51°32.928 2°39.923 -999 -999 -999 -999 -999
2009-08-25 10:41 51°33.227 2°40.117 -999 -999 -999 -999 -999
2009-08-25 10:43 51°33.524 2°40.308 -999 -999 -999 -999 -999
2009-08-25 10:45 51°33.818 2°40.493 -999 -999 -999 -999 -999
2009-08-25 10:47 51°34.108 2°40.685 -999 -999 -999 -999 -999
2009-08-25 10:49 51°34.398 2°40.867 -999 -999 -999 -999 -999
2009-08-25 10:51 51°34.687 2°41.052 -999 -999 -999 -999 -999
2009-08-25 10:53 51°34.978 2°41.228 -999 -999 -999 -999 -999
2009-08-25 10:55 51°35.268 2°41.41 -999 -999 -999 -999 -999
2009-08-25 10:57 51°35.561 2°41.593 -999 -999 -999 -999 -999
2009-08-25 10:59 51°35.853 2°41.777 -999 -999 -999 -999 -999
2009-08-25 11:01 51°36.132 2°41.956 -999 -999 -999 -999 -999
2009-08-25 11:03 51°36.426 2°42.139 -999 -999 -999 -999 -999
2009-08-25 11:05 51°36.719 2°42.321 -999 -999 -999 -999 -999
2009-08-25 11:07 51°37.011 2°42.505 -999 -999 -999 -999 -999
2009-08-25 11:09 51°37.306 2°42.684 -999 -999 -999 -999 -999
2009-08-25 11:11 51°37.602 2°42.86 -999 -999 -999 -999 -999
2009-08-25 11:13 51°37.895 2°43.042 -999 -999 -999 -999 -999
2009-08-25 11:15 51°38.189 2°43.217 -999 -999 -999 -999 -999
2009-08-25 11:17 51°38.485 2°43.389 -999 -999 -999 -999 -999
2009-08-25 11:19 51°38.781 2°43.554 -999 -999 -999 -999 -999
2009-08-25 11:21 51°39.077 2°43.727 -999 -999 -999 -999 -999
2009-08-25 11:23 51°39.375 2°43.896 -999 -999 -999 -999 -999
2009-08-25 11:25 51°39.671 2°44.077 -999 -999 -999 -999 -999
2009-08-25 11:27 51°39.966 2°44.256 -999 -999 -999 -999 -999
2009-08-25 11:29 51°40.26 2°44.446 -999 -999 -999 -999 -999
2009-08-25 11:31 51°40.556 2°44.642 -999 -999 -999 -999 -999
2009-08-25 11:33 51°40.853 2°44.835 -999 -999 -999 -999 -999
2009-08-25 11:35 51°41.151 2°45.022 -999 -999 -999 -999 -999
2009-08-25 11:37 51°41.445 2°45.213 -999 -999 -999 -999 -999
2009-08-25 11:39 51°41.745 2°45.405 -999 -999 -999 -999 -999
2009-08-25 11:41 51°42.044 2°45.592 -999 -999 -999 -999 -999
2009-08-25 11:43 51°42.344 2°45.784 -999 -999 -999 -999 -999
2009-08-25 11:45 51°42.656 2°45.732 -999 -999 -999 -999 -999
2009-08-25 11:47 51°42.893 2°45.29 -999 -999 -999 -999 -999
2009-08-25 11:49 51°43.122 2°44.831 -999 -999 -999 -999 -999
2009-08-25 11:51 51°43.341 2°44.352 -999 -999 -999 -999 -999
2009-08-25 11:53 51°43.524 2°43.844 -999 -999 -999 -999 -999
2009-08-25 11:55 51°43.263 2°43.411 -999 -999 -999 -999 -999
2009-08-25 11:57 51°42.858 2°43.194 -999 -999 -999 -999 -999
2009-08-25 11:59 51°42.454 2°42.971 -999 -999 -999 -999 -999
2009-08-25 13:01 51°30.213 2°36.495 -999 -999 -999 -999 -999
2009-08-25 13:03 51°29.827 2°36.292 -999 -999 -999 -999 -999
2009-08-25 13:05 51°29.444 2°36.091 -999 -999 -999 -999 -999
2009-08-25 13:07 51°29.062 2°35.894 -999 -999 -999 -999 -999
2009-08-25 13:09 51°28.677 2°35.816 -999 -999 -999 -999 -999
2009-08-25 13:11 51°28.34 2°36.117 -999 -999 -999 -999 -999
2009-08-25 13:13 51°28.017 2°36.471 -999 -999 -999 -999 -999
2009-08-25 13:15 51°27.673 2°36.787 -999 -999 -999 -999 -999
2009-08-25 13:17 51°27.32 2°37.081 -999 -999 -999 -999 -999
2009-08-25 13:19 51°26.988 2°37.42 -999 -999 -999 -999 -999
2009-08-25 13:21 51°26.703 2°37.853 -999 -999 -999 -999 -999
2009-08-25 13:23 51°26.43 2°38.3 -999 -999 -999 -999 -999
2009-08-25 13:25 51°26.165 2°38.763 -999 -999 -999 -999 -999
2009-08-25 13:27 51°25.905 2°39.229 -999 -999 -999 -999 -999
2009-08-25 13:29 51°25.644 2°39.693 -999 -999 -999 -999 -999
2009-08-25 13:31 51°25.39 2°40.158 -999 -999 -999 -999 -999
2009-08-25 13:33 51°25.131 2°40.612 -999 -999 -999 -999 -999
2009-08-25 13:35 51°24.855 2°41.051 -999 -999 -999 -999 -999
2009-08-25 13:37 51°24.581 2°41.493 -999 -999 -999 -999 -999
2009-08-25 13:39 51°24.3 2°41.927 -999 -999 -999 -999 -999
2009-08-25 13:41 51°24.021 2°42.368 -999 -999 -999 -999 -999
2009-08-25 13:43 51°23.747 2°42.816 -999 -999 -999 -999 -999
2009-08-25 13:45 51°23.479 2°43.25 -999 -999 -999 -999 -999
2009-08-25 13:47 51°23.212 2°43.67 -999 -999 -999 -999 -999
2009-08-25 13:49 51°23.059 2°44.21 -999 -999 -999 -999 -999
2009-08-25 13:51 51°22.944 2°44.793 -999 -999 -999 -999 -999
2009-08-25 13:53 51°22.739 2°45.3 -999 -999 -999 -999 -999
2009-08-25 13:55 51°22.466 2°45.741 -999 -999 -999 -999 -999
2009-08-25 13:57 51°22.164 2°46.14 -999 -999 -999 -999 -999
2009-08-25 13:59 51°21.865 2°46.551 -999 -999 -999 -999 -999
2009-08-25 14:01 51°21.567 2°46.968 -999 -999 -999 -999 -999
2009-08-25 14:03 51°21.267 2°47.39 -999 -999 -999 -999 -999
2009-08-25 14:05 51°20.966 2°47.817 -999 -999 -999 -999 -999
2009-08-25 14:07 51°20.675 2°48.238 -999 -999 -999 -999 -999
2009-08-25 14:09 51°20.386 2°48.63 -999 -999 -999 -999 -999
2009-08-25 14:11 51°20.098 2°49.018 -999 -999 -999 -999 -999
2009-08-25 14:13 51°19.807 2°49.406 -999 -999 -999 -999 -999
2009-08-25 14:15 51°19.515 2°49.8 -999 -999 -999 -999 -999
2009-08-25 14:17 51°19.222 2°50.205 -999 -999 -999 -999 -999
2009-08-25 14:19 51°18.928 2°50.6 -999 -999 -999 -999 -999
2009-08-25 14:21 51°18.634 2°50.968 -999 -999 -999 -999 -999
2009-08-25 14:23 51°18.339 2°51.338 -999 -999 -999 -999 -999
2009-08-25 14:25 51°18.04 2°51.698 -999 -999 -999 -999 -999
2009-08-25 14:27 51°17.728 2°52.012 -999 -999 -999 -999 -999
2009-08-25 14:29 51°17.419 2°52.319 -999 -999 -999 -999 -999
2009-08-25 14:31 51°17.096 2°52.598 -999 -999 -999 -999 -999
2009-08-25 14:33 51°16.773 2°52.869 -999 -999 -999 -999 -999
2009-08-25 14:35 51°16.452 2°53.168 -999 -999 -999 -999 -999
2009-08-25 14:37 51°16.132 2°53.467 -999 -999 -999 -999 -999
2009-08-25 14:39 51°15.809 2°53.768 -999 -999 -999 -999 -999
2009-08-25 14:41 51°15.487 2°54.079 -999 -999 -999 -999 -999
2009-08-25 14:43 51°15.175 2°54.371 -999 -999 -999 -999 -999
2009-08-25 14:45 51°14.854 2°54.666 -999 -999 -999 -999 -999
2009-08-25 14:47 51°14.54 2°54.95 -999 -999 -999 -999 -999
2009-08-25 14:49 51°14.247 2°55.271 -999 -999 -999 -999 -999